CW2939 Malaga ES current weather conditions

sailwx.info

Wind from 150 at 5 knots gusting 10

Air temperature 28.3° C
Dewpoint 19.3° C

Last reported at 2019-Sep-18 11:04 UTC.
Time now 2019-Sep-18 11:40 UTC

Location: N 36°52' W 004°09'.
View on Google Maps.

See reports from other nearby stations

  
Tides and Currents Weather Stations Pressure Air Temp Water Temp Dewpoint Dewpoint Depression Visibility Wind Speed Wind Dir Waves Ship Positions
date/time (UTC)wind fromknots sea level pressurealtimeterstation pressurevisibilityair tempwater tempwave heightnotes
2019-Sep-18 11:04 150 5 gusting 10 28.3
2019-Sep-18 10:59 128 4 gusting 8 28.3
2019-Sep-18 10:54 127 3 gusting 7 28.3
2019-Sep-18 10:39 107 6 gusting 10 29.4
2019-Sep-18 10:34 164 4 gusting 7 30.0
2019-Sep-18 10:29 240 0 gusting 2 30.0
2019-Sep-18 10:24 240 0 gusting 4 30.0
2019-Sep-18 10:04 180 1 gusting 4 28.9
2019-Sep-18 09:59 194 1 gusting 5 28.9
2019-Sep-18 09:49 194 1 gusting 5 28.3
2019-Sep-18 09:44 254 2 gusting 4 28.3
2019-Sep-18 09:34 237 2 gusting 5 27.8
2019-Sep-18 09:24 135 0 gusting 5 27.8
2019-Sep-18 09:19 092 1 gusting 6 27.2
2019-Sep-18 09:14 089 1 gusting 5 27.2
2019-Sep-18 09:09 078 0 gusting 2 27.2
2019-Sep-18 09:04 027 27.2
2019-Sep-18 08:59 304 27.2
2019-Sep-18 08:49 300 26.7
2019-Sep-18 08:44 300 26.1
2019-Sep-18 08:34 300 25.0
2019-Sep-18 08:29 300 24.4
2019-Sep-18 08:24 300 23.9
2019-Sep-18 08:19 300 23.9
2019-Sep-18 08:14 300 23.3
2019-Sep-18 08:09 300 22.8
2019-Sep-18 08:04 300 22.2
2019-Sep-18 07:49 300 21.1
2019-Sep-18 07:44 300 20.6
2019-Sep-18 07:39 300 20.6
2019-Sep-18 07:34 300 20.0
2019-Sep-18 07:24 300 19.4
2019-Sep-18 07:09 300 18.9
2019-Sep-18 07:04 300 18.9
2019-Sep-18 06:49 325 18.3
2019-Sep-18 06:44 300 18.3
2019-Sep-18 06:34 304 18.3
2019-Sep-18 06:29 300 17.8
2019-Sep-18 06:19 302 18.3
2019-Sep-18 06:14 300 18.3
2019-Sep-18 06:04 300 18.3
2019-Sep-18 05:54 308 18.3
2019-Sep-18 05:44 301 2 gusting 2 18.3
2019-Sep-18 05:39 306 1 gusting 2 18.3
2019-Sep-18 05:34 310 2 gusting 2 18.3
2019-Sep-18 05:29 333 2 gusting 4 18.3
2019-Sep-18 05:24 355 18.3
2019-Sep-18 05:14 355 18.3
2019-Sep-18 05:09 355 18.3
2019-Sep-18 04:59 355 18.3
2019-Sep-18 04:54 355 1 gusting 2 18.3
2019-Sep-18 04:44 005 1 gusting 4 18.3
2019-Sep-18 04:29 005 18.3
2019-Sep-18 04:24 005 18.3
2019-Sep-18 04:19 005 0 gusting 2 18.3
2019-Sep-18 03:59 005 18.9
2019-Sep-18 03:54 005 18.9
2019-Sep-18 03:49 005 0 gusting 2 18.9
2019-Sep-18 03:39 005 1 gusting 2 18.9
2019-Sep-18 03:34 005 1 gusting 2 18.9
2019-Sep-18 03:24 005 2 gusting 4 18.9
2019-Sep-18 03:14 005 1 gusting 2 19.4
2019-Sep-18 03:09 005 1 gusting 2 19.4
2019-Sep-18 03:04 005 1 gusting 2 19.4
2019-Sep-18 02:59 007 2 gusting 4 19.4
2019-Sep-18 02:54 013 2 gusting 4 19.4
2019-Sep-18 02:49 013 1 gusting 4 19.4
2019-Sep-18 02:44 013 0 gusting 2 19.4
2019-Sep-18 02:39 014 20.0
2019-Sep-18 02:19 014 20.0
2019-Sep-18 01:59 014 20.6
2019-Sep-18 01:54 014 20.6
2019-Sep-18 01:49 014 20.6
2019-Sep-18 01:44 013 20.6
2019-Sep-18 01:39 013 20.6
2019-Sep-18 01:34 013 20.6
2019-Sep-18 01:29 013 0 gusting 2 20.6
2019-Sep-18 01:24 013 1 gusting 2 20.6
2019-Sep-18 01:14 013 20.6
2019-Sep-18 01:04 013 0 gusting 2 21.1
2019-Sep-18 00:59 013 3 gusting 5 21.1
2019-Sep-18 00:49 026 2 gusting 4 21.1
2019-Sep-18 00:44 036 1 gusting 2 21.1
2019-Sep-18 00:39 036 21.1
2019-Sep-18 00:29 036 21.1
2019-Sep-18 00:19 036 21.1
2019-Sep-18 00:14 036 1 gusting 2 21.1
2019-Sep-18 00:09 036 1 gusting 4 21.1
2019-Sep-18 00:04 036 2 gusting 4 21.1
2019-Sep-17 23:59 036 2 gusting 4 21.1
2019-Sep-17 23:54 036 0 gusting 4 21.1
2019-Sep-17 23:49 195 21.1
2019-Sep-17 23:44 195 21.1
2019-Sep-17 23:39 194 21.1
2019-Sep-17 23:34 193 21.1
2019-Sep-17 23:29 192 21.1
2019-Sep-17 23:19 190 21.1
2019-Sep-17 23:14 187 21.1
2019-Sep-17 23:09 185 1 gusting 2 21.1
2019-Sep-17 22:59 184 0 gusting 2 21.1
2019-Sep-17 22:54 167 0 gusting 2 21.1
2019-Sep-17 22:49 161 1 gusting 2 21.1
2019-Sep-17 22:44 161 21.1
2019-Sep-17 22:39 161 21.1
2019-Sep-17 22:34 161 21.1
2019-Sep-17 22:24 159 21.1
2019-Sep-17 22:19 157 21.1
2019-Sep-17 22:09 157 21.1
2019-Sep-17 22:04 157 20.6
2019-Sep-17 21:49 157 20.6
2019-Sep-17 21:44 157 20.6
2019-Sep-17 21:39 157 20.6
2019-Sep-17 21:34 157 20.6
2019-Sep-17 21:24 157 20.6
2019-Sep-17 21:19 157 21.1
2019-Sep-17 21:14 157 21.1
2019-Sep-17 21:09 157 21.1
2019-Sep-17 21:04 157 21.1
2019-Sep-17 20:59 157 21.1
2019-Sep-17 20:44 157 21.1
2019-Sep-17 20:39 157 21.1
2019-Sep-17 20:34 157 21.1
2019-Sep-17 20:29 157 21.1
2019-Sep-17 20:24 157 21.1
2019-Sep-17 20:19 157 21.7
2019-Sep-17 20:14 157 21.7
2019-Sep-17 19:59 157 21.7
2019-Sep-17 19:54 157 21.7
2019-Sep-17 19:49 157 21.7
2019-Sep-17 19:44 157 21.7
2019-Sep-17 19:39 157 21.7
2019-Sep-17 19:24 157 21.7
2019-Sep-17 19:19 157 21.7
2019-Sep-17 19:14 157 21.7
2019-Sep-17 19:09 157 22.2
2019-Sep-17 19:04 157 0 gusting 2 22.2
2019-Sep-17 18:59 157 0 gusting 2 22.2
2019-Sep-17 18:54 157 1 gusting 2 22.2
2019-Sep-17 18:49 157 1 gusting 2 22.2
2019-Sep-17 18:44 157 1 gusting 4 22.2
2019-Sep-17 18:39 157 1 gusting 2 22.2
2019-Sep-17 18:29 157 1 gusting 4 22.8
2019-Sep-17 18:24 157 22.8
2019-Sep-17 18:19 157 22.8
2019-Sep-17 18:09 157 2 gusting 5 22.8
2019-Sep-17 18:04 154 3 gusting 5 22.8
2019-Sep-17 17:59 148 1 gusting 4 22.8
2019-Sep-17 17:54 148 2 gusting 5 22.8
2019-Sep-17 17:44 145 1 gusting 5 23.3
2019-Sep-17 17:39 142 4 gusting 6 23.3
2019-Sep-17 17:34 140 2 gusting 6 23.3
2019-Sep-17 17:29 140 5 gusting 7 23.3
2019-Sep-17 17:24 133 6 gusting 7 23.3
2019-Sep-17 17:14 163 23.9
2019-Sep-17 17:09 144 0 gusting 5 23.9
2019-Sep-17 17:04 134 1 gusting 6 23.9
2019-Sep-17 16:59 137 2 gusting 6 23.9
2019-Sep-17 16:54 140 4 gusting 8 24.4
2019-Sep-17 16:49 139 1 gusting 5 24.4
2019-Sep-17 16:44 136 5 gusting 8 25.0
2019-Sep-17 16:39 141 5 gusting 10 25.0
2019-Sep-17 16:34 127 5 gusting 7 25.0
2019-Sep-17 16:29 142 3 gusting 7 25.6
2019-Sep-17 16:24 143 6 gusting 11 25.6
2019-Sep-17 16:19 130 4 gusting 10 26.1
2019-Sep-17 16:14 129 2 gusting 8 26.1
2019-Sep-17 16:09 144 0 gusting 6 26.1
2019-Sep-17 16:04 138 1 gusting 7 26.1
2019-Sep-17 15:59 124 3 gusting 7 26.1
2019-Sep-17 15:49 145 1 gusting 10 26.7
2019-Sep-17 15:34 143 2 gusting 7 26.7
2019-Sep-17 15:29 135 4 gusting 7 26.7
2019-Sep-17 15:24 138 2 gusting 8 26.7
2019-Sep-17 15:19 144 1 gusting 6 27.2
2019-Sep-17 15:14 145 4 gusting 11 27.2
2019-Sep-17 15:04 284 1 gusting 4 27.8
2019-Sep-17 14:59 159 0 gusting 6 27.2
2019-Sep-17 14:54 133 27.2
2019-Sep-17 14:49 123 1 gusting 6 26.7
2019-Sep-17 14:44 123 2 gusting 6 27.2
2019-Sep-17 14:39 123 1 gusting 6 27.2
2019-Sep-17 14:19 073 5 gusting 6 28.3
2019-Sep-17 14:14 079 1 gusting 6 28.9
2019-Sep-17 14:09 136 28.3
2019-Sep-17 14:04 136 28.3
2019-Sep-17 13:59 136 1 gusting 2 28.3
2019-Sep-17 13:54 136 1 gusting 2 28.3
2019-Sep-17 13:49 139 1 gusting 2 28.9
2019-Sep-17 13:44 291 0 gusting 4 28.3
2019-Sep-17 13:34 263 0 gusting 6 27.8
2019-Sep-17 13:29 271 2 gusting 7 27.2
2019-Sep-17 13:24 272 4 gusting 10 26.7
2019-Sep-17 13:19 120 1 gusting 2 26.7
2019-Sep-17 13:14 117 0 gusting 4 26.1
2019-Sep-17 13:09 168 0 gusting 6 25.6
2019-Sep-17 13:04 110 1 gusting 6 25.6
2019-Sep-17 12:59 179 1 gusting 6 25.6
2019-Sep-17 12:54 226 3 gusting 10 25.6
2019-Sep-17 12:49 247 0 gusting 4 25.0
2019-Sep-17 12:44 242 1 gusting 6 25.0
2019-Sep-17 12:39 171 0 gusting 2 25.0
2019-Sep-17 12:34 225 2 gusting 10 25.0
2019-Sep-17 12:24 239 4 gusting 8 25.0
2019-Sep-17 12:19 234 4 gusting 10 25.0
2019-Sep-17 12:14 243 3 gusting 10 24.4
2019-Sep-17 12:09 181 0 gusting 6 24.4
2019-Sep-17 12:04 235 1 gusting 4 24.4
2019-Sep-17 11:59 237 1 gusting 7 24.4
2019-Sep-17 11:54 252 1 gusting 5 23.9
2019-Sep-17 11:49 148 1 gusting 7 23.9
2019-Sep-17 11:39 232 3 gusting 8 23.3
2019-Sep-17 11:34 131 0 gusting 6 23.3
2019-Sep-17 11:29 150 0 gusting 6 23.3
2019-Sep-17 11:24 169 2 gusting 7 23.3
2019-Sep-17 11:14 194 0 gusting 5 23.3
2019-Sep-17 11:09 169 1 gusting 5 22.8
2019-Sep-17 11:04 076 0 gusting 2 22.8
2019-Sep-17 10:59 114 22.8
2019-Sep-17 10:54 114 0 gusting 4 23.3
2019-Sep-17 10:49 294 1 gusting 10 23.3
2019-Sep-17 10:44 127 0 gusting 6 23.3
2019-Sep-17 10:34 162 0 gusting 2 22.8
2019-Sep-17 10:19 133 1 gusting 6 23.3
2019-Sep-17 10:14 277 23.3
2019-Sep-17 10:09 209 0 gusting 5 23.3
2019-Sep-17 10:04 150 1 gusting 2 23.3
2019-Sep-17 09:59 132 2 gusting 5 23.3
2019-Sep-17 09:44 154 3 gusting 6 23.3
2019-Sep-17 09:34 136 0 gusting 4 23.3
2019-Sep-17 09:24 147 7 gusting 11 23.9
2019-Sep-17 09:19 164 1 gusting 6 24.4
2019-Sep-17 09:14 178 1 gusting 6 25.0
2019-Sep-17 09:09 239 2 gusting 5 25.0
2019-Sep-17 09:04 189 0 gusting 5 25.0
2019-Sep-17 08:54 149 0 gusting 2 25.6
2019-Sep-17 08:44 137 25.0
2019-Sep-17 08:34 137 2 gusting 4 24.4
2019-Sep-17 08:24 182 23.9
2019-Sep-17 08:19 239 23.3
2019-Sep-17 08:09 224 23.3
2019-Sep-17 08:04 225 2 gusting 6 23.3
2019-Sep-17 07:54 149 2 gusting 6 22.8
2019-Sep-17 07:29 330 2 gusting 4 21.1
2019-Sep-17 07:24 334 1 gusting 5 21.1
2019-Sep-17 07:14 151 0 gusting 2 21.1
2019-Sep-17 07:09 151 1 gusting 2 21.1
2019-Sep-17 06:59 151 21.1
2019-Sep-17 06:54 151 0 gusting 2 21.1
2019-Sep-17 06:49 254 21.1
2019-Sep-17 06:44 254 21.1
2019-Sep-17 06:39 254 21.1
2019-Sep-17 06:34 255 2 gusting 5 21.1
2019-Sep-17 06:29 270 2 gusting 6 21.1
2019-Sep-17 06:24 313 4 gusting 6 21.1
2019-Sep-17 06:09 043 2 gusting 4 21.1
2019-Sep-17 05:59 069 21.1
2019-Sep-17 05:49 123 0 gusting 6 21.1
2019-Sep-17 05:44 246 1 gusting 8 21.1
2019-Sep-17 05:39 275 0 gusting 7 21.1
2019-Sep-17 05:34 260 4 gusting 8 21.1
2019-Sep-17 05:29 264 4 gusting 6 21.7
2019-Sep-17 05:24 254 0 gusting 5 21.7
2019-Sep-17 05:09 111 5 gusting 7 21.7
2019-Sep-17 05:04 183 0 gusting 5 21.7
2019-Sep-17 04:59 132 1 gusting 2 21.7
2019-Sep-17 04:54 124 21.7
2019-Sep-17 04:44 120 0 gusting 4 21.7
2019-Sep-17 04:29 117 0 gusting 2 21.1
2019-Sep-17 04:24 116 1 gusting 2 21.1
2019-Sep-17 04:19 115 21.1
2019-Sep-17 04:14 115 21.1
2019-Sep-17 04:04 118 6 gusting 8 21.1
2019-Sep-17 03:59 313 21.1
2019-Sep-17 03:54 313 21.1
2019-Sep-17 03:49 317 20.6
2019-Sep-17 03:29 341 4 gusting 7 20.6
2019-Sep-17 03:19 297 0 gusting 5 20.6
2019-Sep-17 03:14 267 20.6
2019-Sep-17 03:09 261 4 gusting 10 20.6
2019-Sep-17 03:04 237 3 gusting 7 20.0
2019-Sep-17 02:59 261 0 gusting 4 20.0
2019-Sep-17 02:54 292 20.0
2019-Sep-17 02:34 302 5 gusting 8 20.0
2019-Sep-17 02:29 074 20.0
2019-Sep-17 02:19 061 4 gusting 6 20.0
2019-Sep-17 02:14 289 20.0
2019-Sep-17 02:09 289 20.0
2019-Sep-17 02:04 289 20.0
2019-Sep-17 01:49 293 3 gusting 5 20.0
2019-Sep-17 01:44 300 2 gusting 4 20.0
2019-Sep-17 01:39 299 1 gusting 4 20.0
2019-Sep-17 01:29 298 0 gusting 2 20.0
2019-Sep-17 01:24 298 0 gusting 2 20.0
2019-Sep-17 01:14 298 20.0
2019-Sep-17 01:09 298 20.0
2019-Sep-17 01:04 298 20.0
2019-Sep-17 00:59 298 20.0
2019-Sep-17 00:49 298 20.0
2019-Sep-17 00:39 298 20.0
2019-Sep-17 00:34 298 20.0
2019-Sep-17 00:24 298 20.0
2019-Sep-17 00:19 298 20.0
2019-Sep-17 00:14 298 20.0
2019-Sep-17 00:04 298 20.0
2019-Sep-16 23:59 298 20.0
2019-Sep-16 23:49 298 20.0
2019-Sep-16 23:44 298 20.0
2019-Sep-16 23:34 298 20.0
2019-Sep-16 23:29 298 20.0
2019-Sep-16 23:24 298 20.0
2019-Sep-16 23:14 298 20.6
2019-Sep-16 23:09 298 20.6
2019-Sep-16 23:04 298 20.6
2019-Sep-16 22:59 298 20.6
2019-Sep-16 22:54 298 20.6
2019-Sep-16 22:49 298 20.6
2019-Sep-16 22:44 298 20.6
2019-Sep-16 22:34 298 20.6
2019-Sep-16 22:29 298 20.6
2019-Sep-16 22:24 298 20.6
2019-Sep-16 22:09 298 20.6
2019-Sep-16 21:59 298 20.6
2019-Sep-16 21:54 298 20.6
2019-Sep-16 21:49 298 20.6
2019-Sep-16 21:39 298 20.6
2019-Sep-16 21:34 298 20.6
2019-Sep-16 21:29 298 20.6
2019-Sep-16 21:19 298 0 gusting 4 20.6
2019-Sep-16 21:14 254 1 gusting 2 21.1
2019-Sep-16 21:04 144 21.1
2019-Sep-16 20:59 144 21.1
2019-Sep-16 20:49 144 21.1
2019-Sep-16 20:44 144 21.1
2019-Sep-16 20:39 144 21.7
2019-Sep-16 20:29 144 21.7
2019-Sep-16 20:24 144 21.7
2019-Sep-16 20:19 144 21.7
2019-Sep-16 20:14 144 21.7
2019-Sep-16 20:09 144 21.7
2019-Sep-16 20:04 144 21.7
2019-Sep-16 19:59 144 21.7
2019-Sep-16 19:54 144 21.7
2019-Sep-16 19:49 144 21.7
2019-Sep-16 19:44 144 21.7
2019-Sep-16 19:34 144 21.7
2019-Sep-16 19:29 144 21.7
2019-Sep-16 19:24 144 21.7
2019-Sep-16 19:14 144 21.7
2019-Sep-16 19:09 144 21.7
2019-Sep-16 19:04 144 21.7
2019-Sep-16 18:59 144 21.7
2019-Sep-16 18:44 144 22.2
2019-Sep-16 18:39 144 22.2
2019-Sep-16 18:34 144 22.2
2019-Sep-16 18:24 144 22.8
2019-Sep-16 18:19 144 22.8
2019-Sep-16 18:14 144 22.8
2019-Sep-16 18:04 144 22.8
2019-Sep-16 17:59 144 2 gusting 4 23.3
2019-Sep-16 17:54 144 1 gusting 5 23.3
2019-Sep-16 17:34 141 2 gusting 6 23.9
2019-Sep-16 17:29 110 0 gusting 2 23.9
2019-Sep-16 17:14 144 1 gusting 7 24.4
2019-Sep-16 17:04 109 24.4
2019-Sep-16 16:59 157 24.4
2019-Sep-16 16:49 145 0 gusting 2 24.4
2019-Sep-16 16:39 150 3 gusting 6 24.4
2019-Sep-16 16:34 138 1 gusting 6 24.4
2019-Sep-16 16:29 126 3 gusting 6 25.0
2019-Sep-16 16:24 158 2 gusting 6 25.0
2019-Sep-16 16:19 139 2 gusting 5 25.0
2019-Sep-16 16:14 167 1 gusting 5 25.6
2019-Sep-16 16:04 133 1 gusting 8 25.6
2019-Sep-16 15:54 193 0 gusting 5 26.1
2019-Sep-16 15:49 320 26.1
2019-Sep-16 15:44 056 0 gusting 4 25.6
2019-Sep-16 15:39 321 0 gusting 6 25.6
2019-Sep-16 15:34 098 0 gusting 4 25.6
2019-Sep-16 15:24 121 0 gusting 7 25.6
2019-Sep-16 15:19 195 25.0
2019-Sep-16 15:14 143 6 gusting 8 25.6
2019-Sep-16 15:09 139 3 gusting 7 25.6
2019-Sep-16 15:04 140 6 gusting 10 25.6
2019-Sep-16 14:54 127 2 gusting 10 26.1
2019-Sep-16 14:49 130 6 gusting 10 26.1
2019-Sep-16 14:44 130 26.1
2019-Sep-16 14:39 159 0 gusting 6 26.1
2019-Sep-16 14:34 119 1 gusting 6 26.1
2019-Sep-16 14:29 134 0 gusting 8 26.1
2019-Sep-16 14:24 133 5 gusting 10 26.1
2019-Sep-16 14:19 148 5 gusting 13 26.7
2019-Sep-16 14:09 283 0 gusting 4 26.1
2019-Sep-16 14:04 188 2 gusting 6 25.6
2019-Sep-16 13:49 190 2 gusting 7 26.1
2019-Sep-16 13:44 184 3 gusting 7 25.6
2019-Sep-16 13:39 128 2 gusting 6 25.6
2019-Sep-16 13:34 207 0 gusting 6 25.0
2019-Sep-16 13:29 131 3 gusting 8 24.4
2019-Sep-16 13:19 175 4 gusting 13 24.4
2019-Sep-16 13:14 131 4 gusting 10 23.9
2019-Sep-16 13:09 129 4 gusting 8 23.9
2019-Sep-16 13:04 148 6 gusting 13 23.9
2019-Sep-16 12:59 138 7 gusting 17 23.9
2019-Sep-16 12:54 130 9 gusting 13 23.9
2019-Sep-16 12:49 142 6 gusting 12 23.3
2019-Sep-16 12:39 138 10 gusting 14 23.3
2019-Sep-16 12:24 144 8 gusting 15 23.9
2019-Sep-16 12:19 141 9 gusting 15 23.9
2019-Sep-16 12:14 128 12 gusting 19 23.9
2019-Sep-16 12:09 123 12 gusting 14 24.4
2019-Sep-16 11:59 120 12 gusting 19 24.4
2019-Sep-16 11:54 127 9 gusting 17 24.4
2019-Sep-16 11:49 139 12 gusting 19 25.0
2019-Sep-16 11:39 132 8 gusting 17 25.6
2019-Sep-16 11:34 135 10 gusting 15 26.1
2019-Sep-16 11:19 135 7 gusting 12 27.2
2019-Sep-16 11:09 146 5 gusting 12 27.8